Home > Weather > Greece > Nea Smyrni > Past weeks

Flag for Greece Weather past 2 weeks in Nea Smyrni, Greece

50 °F

Passing clouds.

Feels Like: 50 °F
Forecast: 44 / 63 °F
Wind: 2 mph from North

Location: Eleftherios Venizelos International Airport

Current Time: Dec 2, 2015 at 2:06:02 AM

Latest Report: Dec 2, 2015 at 12:50 AM

Visibility: N/A

Pressure: 30.18 "Hg

Humidity: 71%

Dew point: 41 °F

Location of Nea SmyrniLocation

Historic Weather in Nea Smyrni — Graph


Nea Smyrni temperature yesterday

Maximum temperature yesterday: 64 °F (at 1:50 PM)
Minimum temperature yesterday: 37 °F (at 1:50 AM)
Average temperature yesterday: 53 °F

Past Weeks' High & Low Weather Summary

High72 °F (Nov 22, 11:50 AM)94% (Nov 18, 10:50 PM)30.27 "Hg (Nov 18, 10:50 PM)
Low37 °F (Dec 1, 1:50 AM)33% (Nov 30, 4:20 PM)29.50 "Hg (Nov 26, 3:50 AM)
Average60 °F71%29.98 "Hg
* Reported Nov 17 12:20 AM — Dec 1 11:50 PM, Nea Smyrni, Weather by CustomWeather, © 2015

Note: Actual official high and low records may vary slightly from our data, if they occured in-between our weather recording intervals... More about our weather records


Nea Smyrni weather history for previous 24 hours

Time TempWeatherWind HumidityBarometerVisibility
11:50 PM
Tue, Dec 1
52 °FPassing clouds.No wind72%30.18 "HgN/A
11:20 PM52 °FPassing clouds.3 mph72%30.18 "HgN/A
10:50 PM50 °FPassing clouds.No wind67%30.18 "HgN/A
10:20 PM54 °FPassing clouds.5 mph67%30.18 "HgN/A
9:50 PM54 °FPassing clouds.1 mph67%30.18 "HgN/A
9:20 PM52 °FPassing clouds.5 mph72%30.15 "HgN/A
8:50 PM54 °FPassing clouds.3 mph67%30.15 "HgN/A
8:20 PM55 °FPassing clouds.2 mph63%30.15 "HgN/A
7:50 PM57 °FPassing clouds.3 mph59%30.15 "HgN/A
7:20 PM59 °FPassing clouds.1 mph51%30.15 "HgN/A
6:50 PM59 °FPassing clouds.7 mph51%30.15 "HgN/A
6:20 PM61 °FPassing clouds.1 mph48%30.15 "HgN/A
5:50 PM59 °FPassing clouds.8 mph51%30.15 "HgN/A
5:20 PM59 °FPassing clouds.5 mph55%30.15 "HgN/A
4:50 PM63 °FPassing clouds.3 mph45%30.15 "HgN/A
4:20 PM63 °FPassing clouds.5 mph49%30.15 "HgN/A
3:50 PM64 °FPassing clouds.7 mph49%30.15 "HgN/A
3:20 PM64 °FPassing clouds.7 mph49%30.15 "HgN/A
2:50 PM63 °FPassing clouds.10 mph52%30.15 "HgN/A
2:20 PM64 °FPassing clouds.12 mph46%30.15 "HgN/A
1:50 PM64 °FPassing clouds.12 mph49%30.18 "HgN/A
1:20 PM63 °FPassing clouds.12 mph49%30.18 "HgN/A
12:50 PM63 °FPassing clouds.14 mph45%30.18 "HgN/A
12:20 PM61 °FPassing clouds.15 mph45%30.21 "HgN/A
11:50 AM63 °FPassing clouds.13 mph42%30.21 "HgN/A
11:20 AM63 °FPassing clouds.8 mph42%30.21 "HgN/A
10:50 AM63 °FPassing clouds.2 mph45%30.21 "HgN/A
9:50 AM57 °FSunny.1 mph63%30.24 "Hg10 mi
9:20 AM52 °FSunny.1 mph72%30.24 "Hg10 mi
8:50 AM46 °FSunny.3 mph82%30.24 "Hg10 mi
8:20 AM43 °FSunny.No wind76%30.24 "Hg10 mi
7:50 AM39 °FSunny.6 mph81%30.24 "Hg10 mi
7:20 AM39 °FSunny.2 mph75%30.24 "Hg10 mi
6:50 AM39 °FClear.2 mph70%30.24 "Hg10 mi
5:50 AM41 °FPassing clouds.5 mph76%30.24 "HgN/A
5:20 AM39 °FPassing clouds.2 mph81%30.24 "HgN/A
4:50 AM37 °FPassing clouds.3 mph81%30.24 "HgN/A
4:20 AM41 °FPassing clouds.No wind76%30.24 "HgN/A
3:50 AM37 °FPassing clouds.2 mph81%30.24 "HgN/A
2:50 AM39 °FPassing clouds.3 mph75%30.24 "HgN/A
Weather by CustomWeather, © 2015

See weather overviewHow to use our weather pages